This is the latest recevied weather packets stored in our database for station/object DK4DAX-2. If no packets are shown the sender has not sent any weather packets the latest 1 day(s).
| Time | Temp. | Humidity | Pressure | Rain* | Wind** | Luminosity | Snow |
|---|---|---|---|---|---|---|---|
| 1778003103 | 15° C | 85% | 999.5 hPa | 0 mm | 0 m/s | - | - |
| 1778002202 | 15° C | 83% | 999.7 hPa | 0 mm | 0 m/s | - | - |
| 1778001303 | 15.56° C | 81% | 999.7 hPa | 0 mm | 0.45 m/s, 171° | - | - |
| 1778000403 | 15.56° C | 80% | 999.5 hPa | 0 mm | 0 m/s | - | - |
| 1777999502 | 16.11° C | 80% | 999.6 hPa | 0 mm | 0 m/s | - | - |
| 1777998603 | 16.11° C | 79% | 999.4 hPa | 0 mm | 0 m/s | - | - |
| 1777997703 | 16.11° C | 76% | 999.9 hPa | 0 mm | 0 m/s | - | - |
| 1777996804 | 16.67° C | 76% | 999.8 hPa | 0 mm | 0 m/s | - | - |
| 1777995903 | 16.67° C | 75% | 999.8 hPa | 0 mm | 0 m/s | - | - |
| 1777995002 | 16.67° C | 74% | 999.8 hPa | 0 mm | 0.45 m/s, 280° | - | - |
| 1777994103 | 17.22° C | 72% | 999.8 hPa | 0 mm | 0 m/s | - | - |
| 1777993203 | 17.78° C | 71% | 999.9 hPa | 0 mm | 0 m/s | - | - |
| 1777992302 | 17.78° C | 71% | 999.7 hPa | 0 mm | 0 m/s | - | - |
| 1777991403 | 18.33° C | 70% | 1000 hPa | 0 mm | 0 m/s | - | - |
| 1777990503 | 18.89° C | 67% | 1000 hPa | 0 mm | 0 m/s | - | - |
| 1777989603 | 19.44° C | 65% | 1000.3 hPa | 0 mm | 0 m/s | - | - |
| 1777988703 | 19.44° C | 69% | 1000.2 hPa | 0 mm | 0.45 m/s, 181° | - | - |
| 1777987803 | 18.89° C | 71% | 1000.5 hPa | 0 mm | 0.45 m/s, 158° | - | - |
| 1777986903 | 18.33° C | 74% | 1000.6 hPa | 0 mm | 0.45 m/s, 202° | - | - |
| 1777986003 | 17.78° C | 74% | 1000.6 hPa | 0 mm | 0.45 m/s, 247° | - | - |
| 1777985103 | 18.33° C | 74% | 1000.7 hPa | 0 mm | 0 m/s | - | - |
| 1777984202 | 17.78° C | 74% | 1000.8 hPa | 0 mm | 0 m/s | - | - |
| 1777983303 | 18.33° C | 74% | 1001 hPa | 0 mm | 0.89 m/s, 192° | - | - |
| 1777982403 | 17.78° C | 74% | 1000.7 hPa | 0 mm | 0 m/s | - | - |
| 1777981502 | 18.33° C | 72% | 1001.1 hPa | 0 mm | 0 m/s | - | - |
* Rain latest hour (hover to see other rain measurements)
** Current wind speed in m/s (hover to see current wind gust speed)